Meteo orario Golabki

Oggi, 12 Aprile, Lunedi

Tempo Temperatura Precipitazioni Vento Pressione Umidità
00:00 +9°C° 0 mm 5 m/s 752 mm Hg 70%
01:00 +10°C° 0 mm 4 m/s 752 mm Hg 74%
02:00 +8°C° 0 mm 4 m/s 752 mm Hg 79%
03:00 +9°C° 0 mm 3 m/s 752 mm Hg 85%
04:00 +8°C° 0 mm 3 m/s 752 mm Hg 91%
05:00 +9°C° 0 mm 3 m/s 752 mm Hg 87%
06:00 +9°C° 0 mm 3 m/s 752 mm Hg 82%
07:00 +10°C° 0 mm 3 m/s 752 mm Hg 78%
08:00 +11°C° 0 mm 3 m/s 752 mm Hg 73%
09:00 +13°C° 0 mm 3 m/s 752 mm Hg 68%
10:00 +14°C° 0 mm 3 m/s 752 mm Hg 63%
11:00 +13°C° 0 mm 4 m/s 753 mm Hg 66%
12:00 +12°C° 0 mm 5 m/s 753 mm Hg 69%
13:00 +10°C° 0 mm 6 m/s 753 mm Hg 72%
14:00 +8°C° 0 mm 6 m/s 754 mm Hg 75%
15:00 +5°C° 0 mm 6 m/s 755 mm Hg 78%
16:00 +3°C° 0 mm 6 m/s 755 mm Hg 81%
17:00 +2°C° 0.2 mm 6 m/s 756 mm Hg 85%
18:00 +2°C° 0.2 mm 6 m/s 757 mm Hg 89%
19:00 +1°C° 0.2 mm 5 m/s 757 mm Hg 93%
20:00 +1°C° 0.1 mm 5 m/s 758 mm Hg 93%
21:00 +1°C° 0.1 mm 5 m/s 758 mm Hg 92%
22:00 +1°C° 0.1 mm 4 m/s 758 mm Hg 92%
23:00 +1°C° 0 mm 4 m/s 759 mm Hg 90%

Domani, 13 Aprile, Martedi

Tempo Temperatura Precipitazioni Vento Pressione Umidità
00:00 +1°C° 0 mm 4 m/s 759 mm Hg 87%
01:00 +2°C° 0 mm 3 m/s 759 mm Hg 85%
02:00 +2°C° 0 mm 3 m/s 759 mm Hg 84%
03:00 +2°C° 0 mm 3 m/s 759 mm Hg 83%
04:00 +2°C° 0 mm 3 m/s 759 mm Hg 81%
05:00 +2°C° 0 mm 3 m/s 759 mm Hg 79%
06:00 +2°C° 0 mm 3 m/s 760 mm Hg 76%
07:00 +3°C° 0 mm 3 m/s 760 mm Hg 73%
08:00 +4°C° 0 mm 3 m/s 760 mm Hg 66%
09:00 +5°C° 0 mm 4 m/s 760 mm Hg 59%
10:00 +6°C° 0 mm 4 m/s 760 mm Hg 52%
11:00 +7°C° 0 mm 4 m/s 760 mm Hg 48%
12:00 +7°C° 0 mm 4 m/s 760 mm Hg 44%
13:00 +7°C° 0 mm 4 m/s 760 mm Hg 40%
14:00 +7°C° 0 mm 4 m/s 759 mm Hg 40%
15:00 +7°C° 0 mm 4 m/s 759 mm Hg 40%
16:00 +7°C° 0 mm 4 m/s 759 mm Hg 41%
17:00 +7°C° 0 mm 3 m/s 759 mm Hg 44%
18:00 +7°C° 0 mm 2 m/s 759 mm Hg 47%
19:00 +6°C° 0 mm 2 m/s 759 mm Hg 49%
20:00 +6°C° 0 mm 2 m/s 759 mm Hg 53%
21:00 +4°C° 0 mm 3 m/s 759 mm Hg 56%
22:00 +4°C° 0 mm 3 m/s 759 mm Hg 59%
23:00 +3°C° 0 mm 3 m/s 759 mm Hg 62%

Dopodomani, 14 Aprile, Mercoledi

Tempo Temperatura Precipitazioni Vento Pressione Umidità
00:00 +3°C° 0 mm 3 m/s 759 mm Hg 64%
01:00 +4°C° 0 mm 2 m/s 758 mm Hg 66%
02:00 +2°C° 0 mm 3 m/s 758 mm Hg 67%
03:00 +2°C° 0 mm 3 m/s 758 mm Hg 68%
04:00 +2°C° 0 mm 3 m/s 758 mm Hg 69%
05:00 +2°C° 0 mm 3 m/s 758 mm Hg 70%
06:00 +1°C° 0 mm 4 m/s 758 mm Hg 71%
07:00 +1°C° 0 mm 4 m/s 758 mm Hg 72%
08:00 +3°C° 0 mm 4 m/s 758 mm Hg 69%
09:00 +4°C° 0 mm 4 m/s 758 mm Hg 66%
10:00 +4°C° 0 mm 4 m/s 758 mm Hg 63%
11:00 +5°C° 0 mm 4 m/s 758 mm Hg 61%
12:00 +5°C° 0 mm 4 m/s 758 mm Hg 59%
13:00 +6°C° 0 mm 4 m/s 758 mm Hg 57%
14:00 +6°C° 0.1 mm 4 m/s 757 mm Hg 57%
15:00 +6°C° 0.1 mm 4 m/s 757 mm Hg 57%
16:00 +6°C° 0.1 mm 4 m/s 757 mm Hg 57%
17:00 +6°C° 0.1 mm 4 m/s 757 mm Hg 61%
18:00 +5°C° 0.1 mm 4 m/s 757 mm Hg 65%
19:00 +4°C° 0.1 mm 4 m/s 757 mm Hg 69%
20:00 +4°C° 0 mm 4 m/s 758 mm Hg 73%
21:00 +3°C° 0 mm 4 m/s 758 mm Hg 78%
22:00 +1°C° 0 mm 5 m/s 758 mm Hg 82%
23:00 +1°C° 0 mm 4 m/s 758 mm Hg 83%

15 Aprile, Giovedi

Tempo Temperatura Precipitazioni Vento Pressione Umidità
00:00 +1°C° 0 mm 4 m/s 758 mm Hg 84%
01:00 0°C° 0 mm 4 m/s 758 mm Hg 84%
02:00 0°C° 0.3 mm 5 m/s 757 mm Hg 87%
03:00 0°C° 0.3 mm 5 m/s 757 mm Hg 89%
04:00 0°C° 0.3 mm 5 m/s 757 mm Hg 92%
05:00 0°C° 0.1 mm 5 m/s 757 mm Hg 93%
06:00 0°C° 0.1 mm 5 m/s 757 mm Hg 94%
07:00 0°C° 0.1 mm 5 m/s 757 mm Hg 95%
08:00 +1°C° 0.1 mm 6 m/s 757 mm Hg 91%
09:00 0°C° 0.1 mm 7 m/s 757 mm Hg 88%
10:00 +2°C° 0.1 mm 7 m/s 757 mm Hg 85%
11:00 0°C° 0.5 mm 7 m/s 757 mm Hg 88%
12:00 0°C° 0.5 mm 7 m/s 757 mm Hg 92%
13:00 0°C° 0.5 mm 7 m/s 757 mm Hg 95%
14:00 +1°C° 0.5 mm 6 m/s 757 mm Hg 95%
15:00 +1°C° 0.5 mm 6 m/s 757 mm Hg 96%
16:00 -1°C° 0.5 mm 6 m/s 756 mm Hg 96%
17:00 -1°C° 0.9 mm 6 m/s 756 mm Hg 97%
18:00 0°C° 0.9 mm 5 m/s 756 mm Hg 97%
19:00 -1°C° 0.9 mm 5 m/s 756 mm Hg 97%
20:00 0°C° 0.9 mm 5 m/s 756 mm Hg 97%
21:00 0°C° 0.9 mm 4 m/s 755 mm Hg 97%
22:00 0°C° 0.9 mm 4 m/s 755 mm Hg 97%
23:00 +1°C° 0.3 mm 4 m/s 755 mm Hg 97%

16 Aprile, Venerdi

Tempo Temperatura Precipitazioni Vento Pressione Umidità
00:00 +1°C° 0.3 mm 4 m/s 755 mm Hg 97%
01:00 +3°C° 0.3 mm 4 m/s 755 mm Hg 97%
02:00 +3°C° 0.2 mm 4 m/s 755 mm Hg 97%
03:00 +3°C° 0.2 mm 4 m/s 755 mm Hg 97%
04:00 +3°C° 0.2 mm 4 m/s 755 mm Hg 97%
05:00 +3°C° 0 mm 4 m/s 755 mm Hg 97%
06:00 +3°C° 0 mm 4 m/s 755 mm Hg 96%
07:00 +3°C° 0 mm 4 m/s 755 mm Hg 96%
08:00 +3°C° 0 mm 4 m/s 755 mm Hg 95%
09:00 +3°C° 0 mm 4 m/s 755 mm Hg 94%
10:00 +3°C° 0 mm 4 m/s 755 mm Hg 93%
11:00 +4°C° 0 mm 4 m/s 756 mm Hg 93%
12:00 +4°C° 0 mm 4 m/s 756 mm Hg 92%
13:00 +4°C° 0 mm 4 m/s 756 mm Hg 91%
14:00 +4°C° 0 mm 4 m/s 756 mm Hg 92%
15:00 +4°C° 0 mm 4 m/s 756 mm Hg 92%
16:00 +4°C° 0 mm 3 m/s 756 mm Hg 93%
17:00 +4°C° 0.1 mm 3 m/s 756 mm Hg 94%
18:00 +4°C° 0.1 mm 3 m/s 756 mm Hg 95%
19:00 +3°C° 0.1 mm 3 m/s 756 mm Hg 97%
20:00 +4°C° 0.1 mm 3 m/s 756 mm Hg 97%
21:00 +4°C° 0.1 mm 3 m/s 756 mm Hg 97%
22:00 +4°C° 0.1 mm 3 m/s 756 mm Hg 98%
23:00 +4°C° 0.1 mm 3 m/s 756 mm Hg 98%

17 Aprile, Sabato

Tempo Temperatura Precipitazioni Vento Pressione Umidità
00:00 +4°C° 0.1 mm 3 m/s 756 mm Hg 98%
01:00 +4°C° 0.1 mm 3 m/s 756 mm Hg 98%
02:00 +5°C° 0 mm 3 m/s 756 mm Hg 98%
03:00 +5°C° 0 mm 3 m/s 756 mm Hg 98%
04:00 +5°C° 0 mm 3 m/s 756 mm Hg 98%
05:00 +5°C° 0.1 mm 3 m/s 756 mm Hg 98%
06:00 +7°C° 0.1 mm 3 m/s 756 mm Hg 98%
07:00 +7°C° 0.1 mm 3 m/s 756 mm Hg 98%
08:00 +7°C° 0.2 mm 3 m/s 756 mm Hg 97%
09:00 +8°C° 0.2 mm 3 m/s 756 mm Hg 95%
10:00 +8°C° 0.2 mm 3 m/s 757 mm Hg 94%
11:00 +10°C° 0.1 mm 4 m/s 757 mm Hg 88%
12:00 +11°C° 0.1 mm 4 m/s 757 mm Hg 82%
13:00 +12°C° 0.1 mm 5 m/s 757 mm Hg 75%
14:00 +12°C° 0.2 mm 5 m/s 757 mm Hg 74%
15:00 +13°C° 0.2 mm 4 m/s 757 mm Hg 72%
16:00 +13°C° 0.2 mm 4 m/s 757 mm Hg 71%
17:00 +12°C° 0.1 mm 4 m/s 757 mm Hg 75%
18:00 +11°C° 0.1 mm 4 m/s 757 mm Hg 80%
19:00 +9°C° 0.1 mm 3 m/s 757 mm Hg 84%
20:00 +9°C° 1 mm 3 m/s 757 mm Hg 88%
21:00 +9°C° 1 mm 3 m/s 757 mm Hg 91%
22:00 +9°C° 1 mm 3 m/s 757 mm Hg 95%
23:00 +7°C° 0.2 mm 4 m/s 757 mm Hg 94%
Mostrare altro

Abbiamo bisogno del tuo consenso

Meteoprog e i nostri fornitori di servizi possono memorizzare e accedere a dati personali come cookie, identificatori di dispositivi o altre tecnologie simili sul tuo dispositivo e possono elaborare tali dati per personalizzare i contenuti e gli annunci, nonché fornire funzionalità dei social media e analizzarne il traffico.

  • Archiviare e/o accedere alle informazioni sul tuo dispositivo

    Cookie, identificatori di dispositivi o altre informazioni possono essere memorizzati o resi accessibili sul tuo dispositivo per le finalità sopra indicate.

  • Annunci e contenuti personalizzati, misurazione di annunci e contenuti, approfondimenti sul pubblico e sviluppo di prodotti

    Gli annunci e i contenuti possono essere personalizzati in base a un profilo. È possibile aggiungere più dati per personalizzare meglio annunci e contenuti. È possibile misurare il rendimento degli annunci e dei contenuti. È possibile ricavare informazioni sul pubblico che ha visto gli annunci e i contenuti. Tali dati possono essere utilizzati per sviluppare o migliorare l'esperienza, i sistemi e il software dell'utente.

Cliccando su “Accetto”, acconsenti all'uso di cookie, identificatori di dispositivo, web beacon o altre tecnologie simili. Puoi modificare le impostazioni nel browser del tuo dispositivo.

Per determinati scopi, è possibile fare affidamento su interessi legali, piuttosto che sul consenso. Puoi approfondire questo argomento consultando la nostra Informativa sulla privacy e sui cookie.